Regional Weather Roundup
Issued by NWS

Home | Current Version | Previous Version | Graphics & Text | Print | Product List | Glossary On
Versions: 1 2 3 4 5 6 7 8 9 10 11 12 13 14 15 16 17 18 19 20 21 22 23 24 25 26 27 28 29 30 31 32 33 34 35 36 37 38 39 40 41 42 43 44 45 46 47 48 49 50
000
ASUS43 KDMX 171406
RWRIA

WEATHER ROUNDUP FOR IOWA
NATIONAL WEATHER SERVICE DES MOINES IA
800 AM CST TUE JAN 17 2017

NOTE: "FAIR" INDICATES FEW OR NO CLOUDS BELOW 12,000 FEET WITH NO
SIGNIFICANT WEATHER AND/OR OBSTRUCTIONS TO VISIBILITY.

* - THESE STATIONS ARE NOT NWS STATIONS...THUS NOT UNDER NWS
QUALITY CONTROL.  THEY ALSO DO NOT REPORT WEATHER SUCH
AS PRECIPITATION OR FOG.

IAZ001>003-012>014-020>022-031>034-043>046-171500-
   NORTHWEST IOWA

CITY           SKY/WX    TMP DP  RH WIND       PRES   REMARKS
CARROLL *      CLOUDY    32  32 100 NW12      29.99R FOG     WCI  23
CHEROKEE *     CLOUDY    28  28 100 CALM      30.00S
DENISON *      CLOUDY    27  27 100 W8        29.99S FOG     WCI  18
LE MARS *      CLOUDY    21  18  86 NW6       30.05R WCI  14
ORANGE CITY *  CLOUDY    21  21 100 NW7       30.01R WCI  13
SHELDON *      CLOUDY    27  27 100 NW9       29.98R FOG     WCI  17
SIOUX CITY     CLOUDY    20  15  81 NW12      30.05R WCI   8
SPENCER        CLOUDY    29  28  96 NW7       29.98S WCI  22
STORM LAKE *   CLOUDY    28  28 100 NW13      29.97S FOG     WCI  18
$$

IAZ055>058-069>071-079>083-090>094-171500-
   SOUTHWEST IOWA

CITY           SKY/WX    TMP DP  RH WIND       PRES   REMARKS
ATLANTIC *     CLOUDY    30  30 100 W8        30.02R FOG     WCI  23
AUDUBON *      CLOUDY    30  28  93 NW5       30.01R FOG     WCI  25
CLARINDA *     CLOUDY    32  32 100 NW9       30.05R WCI  24
COUNCIL BLFS * CLOUDY    28  28 100 W9        30.04R WCI  20
CRESTON *      FOG       32  32 100 W13       30.00R VSB 1/2 WCI  22
HARLAN  *      CLOUDY    28  28 100 NW10      30.06R FOG     WCI  19
LAMONI         CLOUDY    33  32  96 W12       29.99R FOG     WCI  24
RED OAK *      CLOUDY    30  30 100 NW8       30.04R FOG     WCI  23
SHENANDOAH *   CLOUDY    32  30  93 W8        30.06R FOG     WCI  25
$$

IAZ047>049-059>061-072>074-084-171500-
   CENTRAL IOWA

CITY           SKY/WX    TMP DP  RH WIND       PRES   REMARKS
AMES           CLOUDY    33  33 100 NW10      29.96R FOG     WCI  25
ANKENY *       FOG       32  32 100 W9        29.98R VSB 1/2 WCI  24
BOONE *        FOG       32  32 100 NW10      29.95R VSB 1/2 WCI  24
CHARITON *     CLOUDY    32  32 100 W12       29.96S FOG     WCI  23
DES MOINES     DRZL/FOG  34  33  96 NW10      29.97S VSB 1   WCI  26
GRINNELL*      CLOUDY    32  32  99 W9        29.94R FOG     WCI  24
KNOXVILLE *    FOG       34  32  93 W10       29.94S VSB 1   WCI  26
MARSHALLTOWN   CLOUDY    33  32  96 W9        29.93R WCI  25
NEWTON *       CLOUDY    32  32 100 W9        29.94S FOG     WCI  24
PELLA *        CLOUDY    33  33  99 W8        29.97R FOG     WCI  26
PERRY *        CLOUDY    33  33 100 NW7       29.98R FOG     WCI  27
$$

IAZ004>006-015-016-023>025-035-036-171500-
   NORTH CENTRAL IOWA

CITY           SKY/WX    TMP DP  RH WIND       PRES   REMARKS
ALGONA *       FOG       30  30 100 NW13G20   29.95S VSB<1/4 WCI  20
CLARION *      FOG       32  32 100 NW15      29.94R VSB 1/4 WCI  22
ESTHERVILLE    FOG       26  26 100 NW15      29.96S VSB 1   WCI  14
FORT DODGE *   CLOUDY    32  28  86 CALM      29.97R
MASON CITY     FOG       30  29  96 NW14      29.92S VSB 3/4 WCI  19
FOREST CITY *  FOG       30  30 100 NW10      29.93R VSB 1/2 WCI  21
WEBSTER CITY * FOG       32  32 100 NW14G20   29.93R VSB 1/2 WCI  22
IOWA FALLS *   CLOUDY    33  32  96 NW8       29.93R FOG     WCI  26
$$

IAZ007>011-017>019-026>030-037>042-050>054-066-171500-
   NORTHEAST IOWA

CITY           SKY/WX    TMP DP  RH WIND       PRES   REMARKS
CEDAR RAPIDS   FOG       32  32 100 W8        29.90R VSB 1   WCI  25
CHARLES CITY * CLOUDY    32  32 100 MISG      29.89S FOG
CLINTON *      FOG       34  33  96 W13       29.89R VSB 1   WCI  25
DECORAH *      FOG       32  32 100 NW6       29.86R VSB 1/4 WCI  26
DUBUQUE        CLOUDY    32  32 100 NW5       29.86R FOG     WCI  27
MONTICELLO *   CLOUDY    34  34 100 W7        29.88R FOG     WCI  28
OELWEIN *      CLOUDY    32  32 100 NW9       29.89R FOG     WCI  24
WATERLOO       CLOUDY    33  31  92 NW7       29.91R WCI  27
$$

IAZ064-065-067-068-078-171500-
   EAST CENTRAL IOWA

CITY           SKY/WX    TMP DP  RH WIND       PRES   REMARKS
DAVENPORT      FOG       34  33  96 W13       29.90R VSB 3/4 WCI  25
IOWA CITY      CLOUDY    35  33  92 W10       29.93R FOG     WCI  27
MUSCATINE *    CLOUDY    36  34  93 W10       29.92F FOG     WCI  28
QUAD CITIES    CLOUDY    35  34  96 W12       29.90R FOG     WCI  27
$$

IAZ062-063-075>077-085>089-095>099-171500-
   SOUTHEAST IOWA

CITY           SKY/WX    TMP DP  RH WIND       PRES   REMARKS
BURLINGTON     CLOUDY    35  34  96 W9        29.93R WCI  28
FAIRFIELD *    CLOUDY    34  34 100 W12       29.94R FOG     WCI  25
FORT MADISON * CLOUDY    36  36 100 W12       29.95R WCI  27
KEOKUK *       CLOUDY    36  36 100 W13       29.95R WCI  27
OSKALOOSA *    CLOUDY    32  32  99 NW13      29.94S FOG     WCI  23
OTTUMWA        CLOUDY    34  33  96 NW13      29.94R FOG     WCI  25
WASHINGTON *   CLOUDY    34  34 100 W10       29.94R FOG     WCI  26
$$

ABBREVIATIONS USED IN REMARKS
   TC - TEMPERATURES IN CELSIUS
  WCI - WIND CHILL INDEX
   HX - HEAT INDEX
  VSB - VISIBILITY
$$





USA.gov is the U.S. government's official web portal to all federal, state and local government web resources and services.